When you browse on this site, cookies collect data to enhance your experience and personalize the content and advertising you see.
Visit our Privacy Policy to learn more. By continuing to use the site, you agree to this use of cookies and data.
  • In Romania
  • List of Countries
  • For 7 days
  • Water Temperature
  • Satellite Maps
  • Weather Map
  • Weather Widgets
  • user-avatar
    Login

    Hourly Weather Canillo

    Today, 24 June, Monday

    Time Temperature Precipitation Wind Pressure Humidity
    00:00 +15°C° 0 mm 2 mps 620 mmHg 65%
    01:00 +14°C° 0 mm 2 mps 620 mmHg 67%
    02:00 +14°C° 0 mm 2 mps 619 mmHg 69%
    03:00 +14°C° 0 mm 2 mps 619 mmHg 71%
    04:00 +15°C° 0 mm 2 mps 619 mmHg 69%
    05:00 +15°C° 0 mm 2 mps 620 mmHg 67%
    06:00 +16°C° 0 mm 2 mps 620 mmHg 64%
    07:00 +18°C° 0 mm 2 mps 621 mmHg 55%
    08:00 +20°C° 0 mm 2 mps 622 mmHg 45%
    09:00 +23°C° 0 mm 2 mps 623 mmHg 36%
    10:00 +24°C° 0 mm 2 mps 623 mmHg 34%
    11:00 +25°C° 0 mm 2 mps 624 mmHg 32%
    12:00 +26°C° 0 mm 2 mps 624 mmHg 31%
    13:00 +26°C° 0 mm 2 mps 624 mmHg 32%
    14:00 +26°C° 0 mm 2 mps 623 mmHg 33%
    15:00 +26°C° 0 mm 2 mps 623 mmHg 35%
    16:00 +24°C° 0 mm 2 mps 623 mmHg 42%
    17:00 +23°C° 0 mm 2 mps 622 mmHg 50%
    18:00 +20°C° 0 mm 2 mps 621 mmHg 57%
    19:00 +19°C° 0 mm 2 mps 621 mmHg 57%
    20:00 +17°C° 0 mm 2 mps 621 mmHg 56%
    21:00 +16°C° 0 mm 2 mps 621 mmHg 56%
    22:00 +16°C° 0 mm 2 mps 621 mmHg 54%
    23:00 +15°C° 0 mm 2 mps 621 mmHg 52%

    Tomorrow, 25 June, Tuesday

    Time Temperature Precipitation Wind Pressure Humidity
    00:00 +15°C° 0 mm 1 mps 621 mmHg 50%
    01:00 +15°C° 0 mm 1 mps 621 mmHg 51%
    02:00 +15°C° 0 mm 1 mps 621 mmHg 51%
    03:00 +15°C° 0 mm 1 mps 621 mmHg 52%
    04:00 +15°C° 0 mm 1 mps 621 mmHg 53%
    05:00 +16°C° 0 mm 1 mps 622 mmHg 54%
    06:00 +18°C° 0 mm 1 mps 622 mmHg 55%
    07:00 +20°C° 0 mm 1 mps 623 mmHg 49%
    08:00 +21°C° 0 mm 2 mps 624 mmHg 44%
    09:00 +24°C° 0 mm 2 mps 625 mmHg 38%
    10:00 +26°C° 0 mm 2 mps 626 mmHg 35%
    11:00 +27°C° 0 mm 2 mps 626 mmHg 32%
    12:00 +28°C° 0 mm 2 mps 626 mmHg 29%
    13:00 +28°C° 0 mm 2 mps 626 mmHg 29%
    14:00 +28°C° 0 mm 2 mps 626 mmHg 30%
    15:00 +28°C° 0 mm 2 mps 626 mmHg 31%
    16:00 +27°C° 0 mm 1 mps 626 mmHg 39%
    17:00 +26°C° 0 mm 1 mps 625 mmHg 47%
    18:00 +25°C° 0 mm 1 mps 624 mmHg 55%
    19:00 +23°C° 0 mm 1 mps 624 mmHg 54%
    20:00 +21°C° 0 mm 1 mps 624 mmHg 53%
    21:00 +18°C° 0 mm 2 mps 624 mmHg 52%
    22:00 +18°C° 0 mm 2 mps 624 mmHg 48%
    23:00 +18°C° 0 mm 2 mps 623 mmHg 43%

    Day after tomorrow, 26 June, Wednesday

    Time Temperature Precipitation Wind Pressure Humidity
    00:00 +17°C° 0 mm 2 mps 623 mmHg 38%
    01:00 +17°C° 0 mm 2 mps 623 mmHg 39%
    02:00 +17°C° 0 mm 2 mps 623 mmHg 40%
    03:00 +16°C° 0 mm 2 mps 623 mmHg 40%
    04:00 +17°C° 0 mm 2 mps 623 mmHg 41%
    05:00 +18°C° 0 mm 2 mps 624 mmHg 41%
    06:00 +19°C° 0 mm 2 mps 624 mmHg 41%
    07:00 +23°C° 0 mm 2 mps 625 mmHg 35%
    08:00 +26°C° 0 mm 2 mps 626 mmHg 28%
    09:00 +28°C° 0 mm 3 mps 627 mmHg 22%
    10:00 +29°C° 0 mm 3 mps 628 mmHg 20%
    11:00 +30°C° 0 mm 3 mps 628 mmHg 19%
    12:00 +32°C° 0 mm 4 mps 628 mmHg 18%
    13:00 +32°C° 0 mm 4 mps 628 mmHg 19%
    14:00 +31°C° 0 mm 3 mps 628 mmHg 20%
    15:00 +31°C° 0 mm 3 mps 627 mmHg 21%
    16:00 +29°C° 0 mm 3 mps 627 mmHg 28%
    17:00 +27°C° 0 mm 2 mps 626 mmHg 36%
    18:00 +26°C° 0 mm 2 mps 625 mmHg 43%
    19:00 +24°C° 0 mm 2 mps 625 mmHg 43%
    20:00 +21°C° 0 mm 2 mps 624 mmHg 43%
    21:00 +19°C° 0 mm 2 mps 624 mmHg 42%
    22:00 +19°C° 0 mm 2 mps 624 mmHg 38%
    23:00 +19°C° 0 mm 2 mps 624 mmHg 34%

    27 June, Thursday

    Time Temperature Precipitation Wind Pressure Humidity
    00:00 +19°C° 0 mm 2 mps 624 mmHg 29%
    01:00 +19°C° 0 mm 2 mps 624 mmHg 28%
    02:00 +19°C° 0 mm 2 mps 624 mmHg 28%
    03:00 +19°C° 0 mm 2 mps 624 mmHg 27%
    04:00 +19°C° 0 mm 2 mps 624 mmHg 30%
    05:00 +20°C° 0 mm 2 mps 624 mmHg 34%
    06:00 +20°C° 0 mm 2 mps 625 mmHg 37%
    07:00 +24°C° 0 mm 2 mps 626 mmHg 33%
    08:00 +27°C° 0 mm 1 mps 627 mmHg 28%
    09:00 +29°C° 0 mm 1 mps 628 mmHg 24%
    10:00 +30°C° 0 mm 2 mps 628 mmHg 22%
    11:00 +31°C° 0 mm 2 mps 628 mmHg 20%
    12:00 +32°C° 0 mm 2 mps 628 mmHg 19%
    13:00 +32°C° 0 mm 2 mps 628 mmHg 20%
    14:00 +32°C° 0 mm 2 mps 627 mmHg 21%
    15:00 +31°C° 0 mm 1 mps 627 mmHg 22%
    16:00 +30°C° 0 mm 1 mps 626 mmHg 29%
    17:00 +29°C° 0 mm 1 mps 626 mmHg 37%
    18:00 +25°C° 0 mm 0 mps 625 mmHg 44%
    19:00 +25°C° 0 mm 1 mps 625 mmHg 42%
    20:00 +23°C° 0 mm 1 mps 624 mmHg 39%
    21:00 +20°C° 0 mm 2 mps 623 mmHg 36%
    22:00 +20°C° 0 mm 2 mps 623 mmHg 33%
    23:00 +20°C° 0 mm 2 mps 623 mmHg 30%

    28 June, Friday

    Time Temperature Precipitation Wind Pressure Humidity
    00:00 +19°C° 0 mm 2 mps 623 mmHg 27%
    01:00 +19°C° 0 mm 2 mps 623 mmHg 24%
    02:00 +19°C° 0 mm 2 mps 622 mmHg 22%
    03:00 +19°C° 0 mm 2 mps 622 mmHg 20%
    04:00 +19°C° 0 mm 2 mps 622 mmHg 24%
    05:00 +20°C° 0 mm 2 mps 623 mmHg 27%
    06:00 +20°C° 0 mm 2 mps 623 mmHg 30%
    07:00 +24°C° 0 mm 1 mps 624 mmHg 26%
    08:00 +27°C° 0 mm 1 mps 625 mmHg 22%
    09:00 +30°C° 0 mm 1 mps 626 mmHg 19%
    10:00 +31°C° 0 mm 1 mps 626 mmHg 18%
    11:00 +31°C° 0 mm 1 mps 626 mmHg 18%
    12:00 +32°C° 0 mm 2 mps 626 mmHg 18%
    13:00 +31°C° 0 mm 2 mps 626 mmHg 19%
    14:00 +31°C° 0 mm 2 mps 625 mmHg 21%
    15:00 +31°C° 0 mm 2 mps 625 mmHg 22%
    16:00 +29°C° 0 mm 1 mps 624 mmHg 31%
    17:00 +28°C° 0 mm 1 mps 624 mmHg 39%
    18:00 +26°C° 0 mm 1 mps 623 mmHg 48%
    19:00 +24°C° 0 mm 1 mps 622 mmHg 49%
    20:00 +22°C° 0 mm 1 mps 622 mmHg 50%
    21:00 +20°C° 0 mm 1 mps 622 mmHg 51%
    22:00 +20°C° 0 mm 1 mps 621 mmHg 48%
    23:00 +20°C° 0 mm 1 mps 621 mmHg 44%

    29 June, Saturday

    Time Temperature Precipitation Wind Pressure Humidity
    00:00 +20°C° 0 mm 1 mps 621 mmHg 41%
    01:00 +19°C° 0 mm 1 mps 621 mmHg 40%
    02:00 +19°C° 0 mm 1 mps 621 mmHg 39%
    03:00 +19°C° 0 mm 1 mps 621 mmHg 38%
    04:00 +20°C° 0 mm 1 mps 621 mmHg 41%
    05:00 +21°C° 0 mm 1 mps 621 mmHg 43%
    06:00 +21°C° 0 mm 1 mps 622 mmHg 46%
    07:00 +24°C° 0 mm 1 mps 623 mmHg 40%
    08:00 +26°C° 0 mm 1 mps 624 mmHg 33%
    09:00 +29°C° 0 mm 1 mps 625 mmHg 27%
    10:00 +29°C° 0 mm 1 mps 625 mmHg 26%
    11:00 +30°C° 0 mm 2 mps 625 mmHg 25%
    12:00 +31°C° 0 mm 2 mps 625 mmHg 24%
    13:00 +30°C° 0 mm 2 mps 625 mmHg 26%
    14:00 +30°C° 0 mm 2 mps 625 mmHg 29%
    15:00 +29°C° 0 mm 2 mps 624 mmHg 31%
    16:00 +28°C° 0 mm 2 mps 624 mmHg 39%
    17:00 +26°C° 0 mm 1 mps 623 mmHg 46%
    18:00 +25°C° 0 mm 1 mps 623 mmHg 54%
    19:00 +23°C° 0 mm 1 mps 623 mmHg 55%
    20:00 +21°C° 0 mm 1 mps 622 mmHg 56%
    21:00 +19°C° 0 mm 1 mps 622 mmHg 57%
    22:00 +19°C° 0 mm 1 mps 622 mmHg 54%
    23:00 +19°C° 0 mm 1 mps 622 mmHg 51%
    Show more